DECAYED

STARLINK-1938, 47551 (Decayed)

Orbit data source: Space-Track

STARLINK-1938, 47551 was a payload satellite owned by SpaceX/Seattle (US) in LEO that was launched on Thu, 04 Feb 2021 UTC via an FALCON 9 launch vehicle from the Air Force Eastern Test Range (AFETR). Payload-class satellites include a variety of spacecraft equipped with specific instruments for various scientific and technological missions. These include communications satellites like Starlink; space stations such as the ISS; scientific satellites like the Hubble; Earth observation satellites from companies like Planet Labs, Umbra, and HawkEye 360; GPS; miniature CubeSats for education and research; and military/defense satellites.

Not visible in the next 10 days
Identifier
47551, 2021-009D
Orbit
Decayed
Country
Flag of USUS
Related business
Manufacturer
SpaceX/Seattle
Mission
Decayed Commercial Communications
Bus & Motor
STARLINK, Unknown motor
Mass
260 kg wet, ~248 kg dry
Launch date (UTC)
2021-02-04 (5 years ago)
Launch vehicle
FALCON 9
Launch site
Air Force Eastern Test Range (AFETR)
Object type
Payload
Rocket body
Debris
Shape & HBR
Box + 1 Pan, 10.1 m
Radar Cross Section
13.562 m², Large (>1 m²)

Expand to show TLE details & history
Last TLE update: 1 year ago

TLE from 1 year ago
0 STARLINK-1938
1 47551U 21009D   25027.85923551  .13902875  12356-4  53694-3 0  9994
2 47551  53.0204   9.7776 0006389 176.4273 259.4477 16.43646985220701
Epoch: 2025-01-27T20:37Z
TLE epoch observation values (Epoch: 2025-01-27T20:37:17.948Z)
Latitude
50.91219°
Longitude
0.24443°
Altitude
162.849 km
Speed
7.814 km/s
True Right ascension
05h 07m 46s
True Declination
50° 43' 42"
Sunlit
Object was in full shadow at epoch
Visualization orbit readout
Latitude
Unknown
Longitude
Unknown
Altitude
Unknown
Speed
Unknown
Apparent Right ascension
Unknown
Apparent Declination
Unknown
Sunlit
N/A
Visualization observer readout
Local Sidereal Time
21:31:16
Azimuth
Unknown
Elevation
Unknown
Doppler factor
Unknown
Orbital elements
Apogee altitude
160.586 km
Perigee altitude
152.236 km
Semi-major axis
6,534.548 km
Eccentricity
0.00064
Inclination
53.0204°
RAAN
9.7776°
Arg. of periapsis
176.4273°
True anomaly
259.37574°
Mean anomaly
259.4477°
Eccentric anomaly
259.41172°
Mean motion
4.10885 °/min
Orbital period
87.62 mins
BSTAR
0.00053694
Loading maneuver chart data...
Computing Atmospheric mass density...

Documentation

Showing up to 5 results
|